DELTA 1 DEB

Satellite information

Favourite Embed

Satellite Type and Status

DEBRISIN ORBIT

Key statistics

Satellite DELTA 1 DEB at a glance.

Uptime

17995

Days in orbit

Revolutions

≈ 13.1

Per day

Orbit

SSO

Sun Synchronous Orbit

Inclination

101.6

Latest

Satellite identification and parameters

Extended collection of information and parameters for DELTA 1 DEB.

Object identification

Identified? True

Debris? True

Object name: DELTA 1 DEB

International designator: 1976-077AJ

Object number (NORAD): 10713

Object ID (CCSDS): 10713

Country: UNITED STATES OF AMERICA (US)

Current information (Y/N): Y

RCS size: SMALL

Orbital parameters

Period: 110.182 minutes

Inclination: 101.5577 deg

SMA: 7613.2 km

Apoapsis: 1332.794 km

Periapsis: 1137.337 km

RAAN: 117.7838 deg

Eccentricy: 0.0128367

Argument of periapsis: 14.6241 deg

Mean anomaly: 48.891 deg

Mean motion: 13.06928613 rev/day

Mean motion (dot): 0.00001883 rev/day2

B* drag term: 0.0055875 1/REarth

Two-line elements (TLE)

Creation date: Nov. 2, 2025, 3:46 p.m.

Reference frame: TEME

Reference center: EARTH

Epoch: Nov. 2, 2025, 11:12 a.m. UTC

TLE line 0: 0 DELTA 1 DEB

TLE line 1: 1 10713U 76077AJ 25306.46730110 .00001883 00000-0 55875-2 0 9999

TLE line 2: 2 10713 101.5577 117.7838 0128367 14.6241 48.8910 13.06928613297951

Live tracking on map

Real-time ground track for satellite DELTA 1 DEB.

In-orbit conjunctions

A list of the most updated potential collisions computed for object DELTA 1 DEB.

Target Orbit TCA Probability of collision Miss distance Type
COSMOS 397 DEB LEO 2025-09-22 08:49:09 0.000117913 238.0 (m) DEBRIS
METEOR 3-5 LEO 2025-01-11 07:25:25 0.003293187 24.0 (m) PAYLOAD

Associated space launch

Meteorological satellite using radiometric imaging

DELTA 1 DEB was lifted into orbit during the mission ‘Delta 2310 | NOAA 5’, on board a Delta 2310 space rocket.

The launch took place on July 29, 1976, 5:07 p.m. from Space Launch Complex 2W.

For more information about the launch, click the button.

Launch to space Delta 2310 | NOAA 5
Delta 2310 | NOAA 5

Agency: N/A

Status: Launch Successful

Launch date: July 29, 1976, 5:07 p.m. UTC

Rocket: Delta 2310

Launch pad: Space Launch Complex 2W

Location: Vandenberg SFB, CA, USA

...

Latest news about this satellite

There are no fresh news available about this satellite. Check back as we update our databases every day.


Newsletter sign-up

Weekly statistics, charts and insights to help you stay on top of the space industry.